Flag for Slovenia Weather past 2 weeks in Ljubljana, Slovenia

Now
32 °F

Snow. Low clouds.


Feels Like: 32 °F
Forecast: 15 / 40 °F
Wind: 1 mph from North

Location: Ljubljana / Bezigrad

Current Time: Jan 30, 2015 at 6:58:37 AM

Latest Report: Jan 30, 2015 at 6:00 AM


Visibility: 0 mi

Pressure: 28.94 "Hg

Humidity: 98%

Dew point: 32 °F

Location of LjubljanaLocation

Historic Weather in Ljubljana — Graph

°F

Ljubljana temperature yesterday

Maximum temperature yesterday: 36 °F (at 3:00 PM)
Minimum temperature yesterday: 27 °F (at 5:00 AM)
Average temperature yesterday: 32 °F

Past Weeks' High & Low Weather Summary

 TemperatureHumidityPressure
High55 °F (Jan 17, 3:00 PM)100% (Jan 15, 7:00 AM)30.33 "Hg (Jan 15, 7:00 AM)
Low23 °F (Jan 28, 5:00 AM)33% (Jan 18, 1:00 PM)29.00 "Hg (Jan 30, 5:00 AM)
Average39 °F82%29.97 "Hg
* Reported Jan 15 5:00 AM — Jan 30 5:00 AM, Ljubljana, Weather by CustomWeather, © 2014

Note: Actual official high and low records may vary slightly from our data, if they occured in-between our weather recording intervals... More about our weather records

Advertising

Ljubljana weather history for previous 24 hours

 ConditionsComfort  
Time TempWeatherWind HumidityBarometerVisibility
5:00 AM
Jan 30
32 °FChilly.No wind98%29.00 "HgN/A
3:00 AM32 °FChilly.1 mph98%29.09 "HgN/A
2:00 AM32 °FChilly.No wind97%29.15 "HgN/A
1:00 AM32 °FChilly.1 mph97%29.18 "HgN/A
12:00 AM32 °FChilly.1 mph97%29.23 "HgN/A
11:00 PM
Jan 29
33 °FChilly.1 mph97%29.26 "HgN/A
9:00 PM33 °FSnow. Dense fog.1 mph94%29.35 "Hg1 mi
8:00 PM34 °FDrizzle. Low clouds.1 mph91%29.38 "Hg4 mi
7:00 PM35 °FLight rain. Low clouds.1 mph88%29.41 "Hg5 mi
6:00 PM35 °FLight rain. Overcast.1 mph85%29.47 "Hg14 mi
5:00 PM35 °FOvercast.1 mph83%29.47 "Hg16 mi
4:00 PM36 °FOvercast.1 mph81%29.50 "Hg12 mi
3:00 PM36 °FLight rain. Overcast.1 mph78%29.53 "Hg12 mi
2:00 PM36 °FOvercast.1 mph77%29.55 "Hg12 mi
1:00 PM35 °FSnow flurries. Overcast.2 mph80%29.59 "Hg12 mi
12:00 PM33 °FSnow flurries. Overcast.1 mph79%29.62 "Hg16 mi
11:00 AM32 °FSnow flurries. Overcast.No wind75%29.65 "Hg19 mi
10:00 AM30 °FOvercast.1 mph80%29.67 "Hg16 mi
9:00 AM29 °FOvercast.1 mph85%29.68 "Hg12 mi
8:00 AM28 °FOvercast.1 mph87%29.68 "Hg12 mi
7:00 AM28 °FOvercast.1 mph89%29.68 "Hg9 mi
6:00 AM27 °FOvercast.1 mph88%29.70 "Hg9 mi
Weather by CustomWeather, © 2014

See weather overviewHow to use our weather pages